カタログに戻る

CZ-4 DEB

運用中SSO
NORAD 27687·DEBRIS·🇨🇳 China

打ち上げ Oct 14, 1999 から Taiyuan Satellite Launch Center

Loading…

次のパス (今後24時間)

TLE

最新Source: Space-Track

元期: Sep 14, 2026, 09:07 UTC

1 27687U 99057MT  26257.38004424  .00000081  00000-0  40565-4 0  9990
2 27687  98.7429 302.2672 0087115 233.6079 125.7049 14.38206494266255

AllMySatでCZ-4 DEBをリアルタイム追跡

Download on the App Store